Home   Weather   Odense   Past weeks

Flag for Denmark Past Weather in Odense, Denmark — Yesterday and Last 2 Weeks

Now
45 °F

Light rain. Passing clouds.


Feels Like: 38 °F
Forecast: 37 / 45 °F
Wind: 15 mph from Southeast

Location: Soenderborg Lufthavn

Current Time: Feb 27, 2017 at 9:58:31 pm

Latest Report: Feb 27, 2017 at 9:20 pm


Visibility: 6 mi

Pressure: 29.15 "Hg

Humidity: 87%

Dew Point: 41 °F

Location of OdenseLocation

Past Weather in Odense — Graph

°F

Odense Temperature Yesterday

Maximum temperature yesterday: 48 °F (at 10:20 pm)
Minimum temperature yesterday: 43 °F (at 12:20 am)
Average temperature yesterday: 44 °F

High & Low Weather Summary for the Past Weeks

 TemperatureHumidityPressure
High50 °F (Feb 27, 10:52 am)100% (Feb 14, 7:20 pm)30.69 "Hg (Feb 14, 7:20 pm)
Low28 °F (Feb 13, 8:20 pm)49% (Feb 24, 11:50 am)28.85 "Hg (Feb 23, 8:50 pm)
Average40 °F87%29.92 "Hg
* Reported Feb 12 8:20 pm — Feb 27 8:20 pm, Odense, Weather by CustomWeather, © 2017

Note: Actual official high and low records may vary slightly from our data, if they occured in-between our weather recording intervals... More about our weather records

Advertising

Odense Weather History for the Previous 24 Hours

Scroll right to see more
 ConditionsComfort  
Time TempWeatherWind HumidityBarometerVisibility
8:20 pm
Mon, Feb 27
46 °FPassing clouds.18 mph76%29.18 "HgN/A
7:50 pm46 °FPassing clouds.20 mph76%29.21 "HgN/A
7:20 pm46 °FPassing clouds.16 mph82%29.21 "HgN/A
6:20 pm46 °FPassing clouds.15 mph82%29.27 "HgN/A
5:50 pm46 °FPartly sunny.14 mph82%29.27 "HgN/A
5:20 pm48 °FPartly sunny.12 mph76%29.30 "HgN/A
4:50 pm48 °FBroken clouds.13 mph76%29.30 "HgN/A
4:20 pm50 °FPartly sunny.10 mph76%29.33 "HgN/A
3:20 pm50 °FBroken clouds.10 mph76%29.36 "HgN/A
2:50 pm50 °FBroken clouds.8 mph82%29.39 "HgN/A
2:20 pm50 °FBroken clouds.8 mph76%29.42 "HgN/A
1:53 pm50 °FBroken clouds.9 mph76%29.42 "HgN/A
1:20 pm50 °FPartly sunny.9 mph76%29.42 "Hg6 mi
12:50 pm50 °FBroken clouds.9 mph82%29.45 "Hg6 mi
11:21 am50 °FPartly sunny.10 mph82%29.47 "Hg6 mi
10:52 am50 °FPartly sunny.10 mph82%29.50 "Hg4 mi
10:21 am48 °FDrizzle. Partly sunny.8 mph87%29.50 "Hg4 mi
9:26 am46 °FLight rain. Partly sunny.8 mph93%29.50 "Hg2 mi
8:50 am46 °FLight rain. Partly sunny.6 mph93%29.53 "Hg2 mi
8:20 am46 °FLight rain. Partly sunny.8 mph93%29.53 "Hg2 mi
7:50 am46 °FLight rain. Partly sunny.12 mph93%29.53 "Hg2 mi
7:20 am46 °FLight rain. Partly sunny.10 mph93%29.53 "Hg2 mi
6:50 am46 °FLight rain. Passing clouds.12 mph93%29.53 "Hg1 mi
6:24 am46 °FLight rain. Passing clouds.12 mph93%29.53 "Hg1 mi
5:50 am46 °FDrizzle. Fog.12 mph93%29.53 "Hg1 mi
5:20 am46 °FSprinkles. Passing clouds.12 mph93%29.56 "Hg1 mi
4:50 am46 °FSprinkles. Fog.12 mph93%29.56 "Hg2 mi
4:20 am46 °FSprinkles. Mostly cloudy.12 mph93%29.56 "Hg3 mi
3:50 am48 °FOvercast.12 mph82%29.56 "HgN/A
3:20 am48 °FOvercast.12 mph82%29.56 "HgN/A
2:50 am48 °FDrizzle. Overcast.12 mph82%29.56 "Hg5 mi
2:20 am48 °FPassing clouds.14 mph82%29.56 "HgN/A
1:50 am48 °FPassing clouds.14 mph82%29.59 "HgN/A
1:20 am48 °FPassing clouds.13 mph82%29.59 "HgN/A
12:50 am48 °FPassing clouds.14 mph82%29.59 "HgN/A
12:20 am48 °FPassing clouds.14 mph82%29.59 "HgN/A
11:50 pm
Sun, Feb 26
48 °FPassing clouds.14 mph82%29.59 "HgN/A
11:20 pm48 °FOvercast.14 mph87%29.59 "HgN/A
10:50 pm48 °FPassing clouds.12 mph87%29.59 "HgN/A
10:20 pm48 °FPassing clouds.12 mph87%29.62 "HgN/A
9:50 pm46 °FLow clouds.10 mph93%29.62 "Hg5 mi
9:20 pm46 °FFog.9 mph93%29.62 "Hg3 mi
Weather by CustomWeather, © 2017

See weather overviewHow to use our weather pages